Volver al catálogo

COSMOS 1570

ActivoNavegaciónLEO
NORAD 15031·PAYLOAD·🇷🇺 Russia

Lanzado Jun 8, 1984 desde Plesetsk Cosmodrome

Loading…

Próximos Pases (próximas 24 horas)

TLE

ActualizadoSource: Space-Track

Época: Sep 14, 2026, 15:27 UTC

1 15031U 84056A   26257.64393505  .00000068  00000-0  34553-4 0  9998
2 15031  74.0663 127.5060 0012681 177.5953 212.8141 14.32692263207246

Sigue COSMOS 1570 en tiempo real con AllMySat

Download on the App Store